TimeCET,TemperatureF,Dew PointF,Humidity,Sea Level PressureIn,VisibilityMPH,Wind Direction,Wind SpeedMPH,Gust SpeedMPH,PrecipitationIn,Events,Conditions,WindDirDegrees,DateUTC
12:00 AM,24.8,21.2,86,29.92,6.2,SW,10.4,-,N/A,,Mostly Cloudy,230,2012-12-06 23:00:00
12:30 AM,24.8,21.2,86,29.92,-9999.0,SW,11.5,-,N/A,,Clear,220,2012-12-06 23:30:00
1:00 AM,25,20,76,29.99,12,SW,11.2,,,,Partly Cloudy,220,2012-12-07 00:00:00
1:00 AM,24.8,21.2,86,29.92,6.2,SW,10.4,-,N/A,,Overcast,220,2012-12-07 00:00:00
1:30 AM,24.8,19.4,80,29.92,6.2,SW,10.4,-,N/A,,Overcast,230,2012-12-07 00:30:00
2:00 AM,24.8,19.4,80,29.92,6.2,SW,9.2,-,N/A,,Overcast,230,2012-12-07 01:00:00
2:30 AM,24.8,19.4,80,29.92,6.2,SW,10.4,-,N/A,Snow,Light Snow,230,2012-12-07 01:30:00
3:00 AM,24.8,19.4,80,29.92,6.2,SW,11.5,-,N/A,Snow,Light Snow,220,2012-12-07 02:00:00
3:30 AM,24.8,19.4,80,29.92,-9999.0,SW,12.7,-,N/A,,Clear,220,2012-12-07 02:30:00
4:00 AM,24.8,19.4,80,29.92,6.2,SSW,10.4,-,N/A,,Mostly Cloudy,210,2012-12-07 03:00:00
4:30 AM,24.8,19.4,80,29.92,6.2,SW,10.4,-,N/A,Snow,Light Snow,220,2012-12-07 03:30:00
5:00 AM,23.0,19.4,86,29.92,3.7,SW,11.5,-,N/A,Snow,Light Snow,220,2012-12-07 04:00:00
5:30 AM,23.0,19.4,86,29.92,2.8,SW,11.5,-,N/A,Snow,Light Snow,230,2012-12-07 04:30:00
6:00 AM,23.0,19.4,86,29.92,2.2,SSW,10.4,-,N/A,Snow,Light Snow,210,2012-12-07 05:00:00
6:30 AM,23.0,19.4,86,29.92,5.0,SSW,10.4,-,N/A,Snow,Light Snow,210,2012-12-07 05:30:00
7:00 AM,22,18,78,30.00,6,SW,11.2,,,Snow,Light Snow,220,2012-12-07 06:00:00
7:00 AM,21.2,17.6,86,29.92,6.2,SW,11.5,-,N/A,Snow,Light Snow,220,2012-12-07 06:00:00
7:30 AM,21.2,17.6,86,29.92,6.2,SSW,10.4,-,N/A,Snow,Light Snow,200,2012-12-07 06:30:00
8:00 AM,21.2,17.6,86,29.92,-9999.0,SSW,8.1,-,N/A,,Clear,210,2012-12-07 07:00:00
8:30 AM,21.2,17.6,86,29.95,-9999.0,SSW,8.1,-,N/A,,Clear,210,2012-12-07 07:30:00
9:00 AM,21.2,17.6,86,29.95,6.2,SSW,8.1,-,N/A,,Scattered Clouds,210,2012-12-07 08:00:00
9:30 AM,21.2,17.6,86,29.95,6.2,SSW,8.1,-,N/A,,Scattered Clouds,210,2012-12-07 08:30:00
10:00 AM,23.0,17.6,80,29.95,6.2,SW,6.9,-,N/A,,Partly Cloudy,220,2012-12-07 09:00:00
10:30 AM,23.0,17.6,80,29.92,6.2,SW,8.1,-,N/A,,Scattered Clouds,220,2012-12-07 09:30:00
11:00 AM,23.0,15.8,74,29.92,6.2,SW,10.4,-,N/A,,Partly Cloudy,220,2012-12-07 10:00:00
11:30 AM,23.0,17.6,80,29.92,6.2,SW,10.4,-,N/A,,Partly Cloudy,230,2012-12-07 10:30:00
12:00 PM,24.8,17.6,74,29.92,6.2,SW,8.1,-,N/A,,Partly Cloudy,230,2012-12-07 11:00:00
12:30 PM,24.8,17.6,74,29.89,6.2,WSW,8.1,-,N/A,,Partly Cloudy,240,2012-12-07 11:30:00
1:00 PM,24,16,61,29.97,12,SW,8.9,,,,Partly Cloudy,220,2012-12-07 12:00:00
1:00 PM,24.8,17.6,74,29.89,6.2,SW,6.9,-,N/A,,Partly Cloudy,220,2012-12-07 12:00:00
1:30 PM,24.8,17.6,74,29.89,6.2,SW,9.2,-,N/A,,Partly Cloudy,230,2012-12-07 12:30:00
2:00 PM,24.8,17.6,74,29.89,6.2,WSW,8.1,-,N/A,,Partly Cloudy,240,2012-12-07 13:00:00
2:30 PM,23.0,15.8,74,29.86,6.2,SW,8.1,-,N/A,,Partly Cloudy,230,2012-12-07 13:30:00
3:00 PM,21.2,15.8,80,29.86,6.2,SW,8.1,-,N/A,,Partly Cloudy,230,2012-12-07 14:00:00
3:30 PM,21.2,15.8,80,29.86,-9999.0,SW,6.9,-,N/A,,Clear,220,2012-12-07 14:30:00
4:00 PM,19.4,15.8,86,29.86,-9999.0,SW,5.8,-,N/A,,Clear,220,2012-12-07 15:00:00
4:30 PM,19.4,14.0,80,29.86,-9999.0,SW,5.8,-,N/A,,Clear,220,2012-12-07 15:30:00
5:00 PM,19.4,15.8,86,29.86,-9999.0,SSW,6.9,-,N/A,,Clear,210,2012-12-07 16:00:00
5:30 PM,19.4,15.8,86,29.86,-9999.0,SSW,5.8,-,N/A,,Clear,200,2012-12-07 16:30:00
6:00 PM,19.4,14.0,80,29.89,-9999.0,South,3.5,-,N/A,,Clear,180,2012-12-07 17:00:00
6:30 PM,17.6,14.0,86,29.89,-9999.0,Variable,1.2,-,N/A,,Clear,0,2012-12-07 17:30:00
7:00 PM,14,12,86,29.97,5,,2.2,,,,Mist,,2012-12-07 18:00:00
7:00 PM,14.0,10.4,86,29.89,5.0,WNW,2.3,-,N/A,,Unknown,300,2012-12-07 18:00:00
7:30 PM,14.0,10.4,86,29.89,4.3,Variable,2.3,-,N/A,,Unknown,0,2012-12-07 18:30:00
8:00 PM,14.0,12.2,93,29.89,3.7,ESE,1.2,-,N/A,,Unknown,110,2012-12-07 19:00:00
8:30 PM,12.2,10.4,92,29.89,3.7,Calm,Calm,-,N/A,,Unknown,0,2012-12-07 19:30:00
9:00 PM,10.4,8.6,92,29.89,3.1,Variable,2.3,-,N/A,,Mist,0,2012-12-07 20:00:00
9:30 PM,8.6,6.8,92,29.92,2.5,WSW,3.5,-,N/A,,Mist,250,2012-12-07 20:30:00
10:00 PM,10.4,8.6,92,29.92,2.5,Variable,2.3,-,N/A,,Mist,0,2012-12-07 21:00:00
10:30 PM,10.4,8.6,92,29.92,1.9,Calm,Calm,-,N/A,,Mist,0,2012-12-07 21:30:00
11:00 PM,10.4,6.8,85,29.92,1.9,Calm,Calm,-,N/A,,Mist,0,2012-12-07 22:00:00
11:30 PM,8.6,5.0,85,29.92,2.2,Variable,1.2,-,N/A,,Mist,0,2012-12-07 22:30:00